Lawrence, KS

2:34 PM CDT on June 26, 2017 (GMT -0500)
Lawrence Municipal

Weather History for KLWC - December, 2011

Change the Weather History Date:

Wednesday, December 14, 2011

  Actual Average Record
Temperature  
Mean Temperature 53 °F 32 °F  
Max Temperature 62 °F 42 °F 63 °F (2014)
Min Temperature 44 °F 21 °F 1 °F (2000)
Degree Days  
Heating Degree Days 12 33  
Month to date heating degree days 438  
Since 1 July heating degree days 1446  
Cooling Degree Days 0 0  
Month to date cooling degree days 0  
Year to date cooling degree days 1371  
Growing Degree Days 3 (Base 50)    
Moisture  
Dew Point 51 °F    
Average Humidity 90    
Maximum Humidity 100    
Minimum Humidity 77    
Precipitation  
Precipitation 0.11 in 0.05 in 0.57 in (2014)
Month to date precipitation 0.62  
Year to date precipitation 37.70  
Sea Level Pressure  
Sea Level Pressure 29.87 in    
Wind  
Wind Speed 9 mph (South)    
Max Wind Speed 22 mph    
Max Gust Speed 30 mph    
Visibility 6 miles    
Events Rain    
T = Trace of Precipitation, MM = Missing Value Source: NWS Daily Summary

Daily Weather History Graph

Daily Weather History Graph

Search for Another Location

Airport or City:

Trip Planner

Search our weather history database for the weather conditions in past years. The results will help you decide how hot, cold, wet, or windy it might be!

Date:

Astronomy

Dec. 14, 2011 Rise Set
Actual Time 7:31 AM CST 4:59 PM CST
Civil Twilight 7:01 AM CST 5:29 PM CST
Nautical Twilight 6:28 AM CST 6:02 PM CST
Astronomical Twilight 5:55 AM CST 6:35 PM CST
Moon 9:18 PM CST (12/14) 10:18 AM CST (12/14)
Length of Visible Light 10h 27m
Length of Day
9h 27m
Waning Gibbous, 83% of the Moon is Illuminated
Dec 14
Waning Gibbous
Dec 17
Last Quarter
Dec 24
New
Jan 1
First Quarter
Jan 9
Full

Hourly Weather History & Observations

Time (CST) Temp. Windchill Dew Point Humidity Pressure Visibility Wind Dir Wind Speed Gust Speed Precip Events Conditions
12:05 AM 44.6 °F 41.4 °F 44.6 °F 100% 30.04 in 2.5 mi SE 5.8 mph - 0.01 in Rain Light Rain
12:13 AM 44.6 °F 41.4 °F 44.6 °F 100% 30.03 in 3.0 mi SE 5.8 mph - 0.01 in Rain Light Rain
12:52 AM 46.0 °F 44.8 °F 45.0 °F 96% 30.03 in 2.5 mi SSE 3.5 mph - 0.02 in Rain Light Rain
1:01 AM 46.4 °F 44.3 °F 44.6 °F 93% 30.01 in 3.0 mi SSE 4.6 mph - 0.00 in   Overcast
1:52 AM 48.0 °F - 46.9 °F 96% 30.00 in 2.5 mi SSE 6.9 mph - 0.01 in Rain Light Rain
2:04 AM 48.2 °F - 46.4 °F 93% 29.99 in 2.5 mi SSE 6.9 mph - 0.00 in   Overcast
2:32 AM 48.2 °F - 48.2 °F 100% 29.98 in 1.5 mi SSE 6.9 mph - 0.01 in Rain Light Rain
2:44 AM 48.2 °F - 48.2 °F 100% 29.98 in 2.0 mi SSE 6.9 mph - 0.01 in   Overcast
2:52 AM 48.9 °F - 48.0 °F 97% 29.99 in 2.5 mi SSE 6.9 mph - 0.01 in   Overcast
3:28 AM 50.0 °F - 48.2 °F 94% 29.96 in 1.5 mi SSE 6.9 mph - 0.02 in Rain Light Rain
3:35 AM 50.0 °F - 48.2 °F 94% 29.95 in 1.8 mi South 5.8 mph - 0.02 in Rain Light Rain
3:42 AM 50.0 °F - 48.2 °F 94% 29.95 in 2.0 mi South 4.6 mph - 0.02 in Rain Light Rain
3:49 AM 51.8 °F - 48.2 °F 88% 29.95 in 1.8 mi South 5.8 mph - 0.03 in Rain Light Rain
3:52 AM 51.1 °F - 50.0 °F 96% 29.95 in 1.8 mi South 5.8 mph - 0.03 in Rain Light Rain
4:00 AM 51.8 °F - 50.0 °F 94% 29.94 in 2.0 mi SSE 6.9 mph - 0.00 in   Overcast
4:25 AM 53.6 °F - 51.8 °F 94% 29.92 in 4.0 mi South 6.9 mph - 0.01 in Rain Light Rain
4:52 AM 54.0 °F - 52.0 °F 93% 29.92 in 6.0 mi South 10.4 mph - 0.02 in   Overcast
5:31 AM 55.4 °F - 53.6 °F 94% 29.90 in 7.0 mi South 15.0 mph - N/A   Overcast
5:52 AM 55.9 °F - 53.1 °F 90% 29.90 in 9.0 mi South 15.0 mph - N/A   Overcast
6:52 AM 57.0 °F - 54.0 °F 89% 29.88 in 10.0 mi South 12.7 mph 21.9 mph N/A   Overcast
7:52 AM 57.0 °F - 54.0 °F 89% 29.88 in 7.0 mi SSW 12.7 mph 25.3 mph N/A   Overcast
8:52 AM 57.0 °F - 54.0 °F 89% 29.86 in 5.0 mi South 15.0 mph 21.9 mph N/A   Overcast
9:52 AM 57.9 °F - 55.0 °F 90% 29.84 in 6.0 mi South 12.7 mph 24.2 mph N/A   Overcast
10:52 AM 59.0 °F - 55.0 °F 87% 29.83 in 6.0 mi SSW 19.6 mph 27.6 mph 0.00 in   Overcast
11:27 AM 59.0 °F - 55.4 °F 88% 29.81 in 6.0 mi SSW 16.1 mph 23.0 mph 0.02 in   Overcast
11:52 AM 59.0 °F - 55.9 °F 90% 29.81 in 5.0 mi SSW 19.6 mph 25.3 mph 0.02 in   Overcast
12:52 PM 60.1 °F - 55.9 °F 86% 29.75 in 10.0 mi South 19.6 mph 28.8 mph 0.00 in   Overcast
1:41 PM 60.8 °F - 55.4 °F 82% 29.74 in 10.0 mi SSW 19.6 mph 29.9 mph N/A   Mostly Cloudy
1:52 PM 62.1 °F - 57.0 °F 84% 29.74 in 10.0 mi SSW 21.9 mph 28.8 mph N/A   Mostly Cloudy
2:02 PM 62.6 °F - 55.4 °F 77% 29.74 in 10.0 mi SSW 21.9 mph 27.6 mph N/A   Mostly Cloudy
2:52 PM 62.1 °F - 57.0 °F 84% 29.73 in 10.0 mi SSW 17.3 mph - N/A   Overcast
3:52 PM 62.1 °F - 55.9 °F 80% 29.73 in 10.0 mi SSW 15.0 mph 26.5 mph N/A   Overcast
4:26 PM 60.8 °F - 55.4 °F 82% 29.74 in 10.0 mi SSW 16.1 mph - N/A   Mostly Cloudy
4:52 PM 60.1 °F - 55.9 °F 86% 29.74 in 10.0 mi SSW 11.5 mph - N/A   Clear
5:52 PM 59.0 °F - 55.0 °F 87% 29.74 in 10.0 mi South 9.2 mph - N/A   Clear
6:52 PM 57.9 °F - 55.0 °F 90% 29.74 in 10.0 mi SW 9.2 mph - N/A   Clear
7:52 PM 55.9 °F - 51.1 °F 84% 29.77 in 10.0 mi WSW 6.9 mph - N/A   Mostly Cloudy
8:52 PM 53.1 °F - 48.0 °F 83% 29.80 in 10.0 mi West 9.2 mph - N/A   Clear
9:52 PM 52.0 °F - 46.0 °F 80% 29.81 in 10.0 mi WNW 9.2 mph - N/A   Clear
10:52 PM 48.9 °F - 46.0 °F 90% 29.83 in 10.0 mi NW 6.9 mph - N/A   Mostly Cloudy
11:52 PM 48.0 °F - 44.1 °F 86% 29.87 in 10.0 mi WNW 13.8 mph - N/A   Overcast